{"data":{"norad_id":53406,"intl_designator":"2022-097U","name":"STARLINK-4533","alt_names":[],"object_type":"PAYLOAD","status":"ACTIVE","operator":null,"country":"US","launch_date":"2022-08-10","launch_site_code":"AFETR","launch_vehicle":null,"mission":null,"orbit_class":"UNKNOWN","rcs_meters":null,"size_class":null,"mass_kg":null,"dimensions":null,"purposes":["comms"],"wikipedia_slug":null,"has_3d_model":false,"image_url":null,"decayed_at":null,"tle_current":{"epoch":"2026-05-25T03:26:21.846624Z","epoch_age_seconds":69978,"freshness":"FRESH","line1":"1 53406U 22097U   26145.14330841  .00000510  00000+0  50112-4 0  9998","line2":"2 53406  53.2124 130.9084 0001142  71.7148 288.3969 15.08838075210191","mean_motion":15.08838075,"eccentricity":0.0001142,"inclination_deg":53.2124,"raan_deg":130.9084,"arg_perigee_deg":71.7148,"mean_anomaly_deg":288.3969,"bstar":5.0112e-5,"rev_number":21019,"period_min":95.43767643854,"perigee_km":538.95925031288,"apogee_km":540.53929553762,"semimajor_km":6917.8862729253,"source":"CELESTRAK","updated_at":"2026-05-25T13:38:17.399505Z"}}}